Wetterdaten: Mittwoch, 16.09.2015
Datum Zeit Temp. A. Feuchte A. Luftdruck Regen Wind Richtung Richtung Sonnenschein ET UV Solar Taupunkt Windchill Windben Empfang
16.09.2015 00:02 13,0 C 86 % 1010,0 hPa 0,0 l/m 0,0 km/h (0 Bft) NO 44 0 min 0,000 mm 0,0 UV-I 0 W/m 10,7 C 13,0 C 0,0 km/h (0 Bft) 0,00 %
16.09.2015 00:07 12,9 C 87 % 1009,9 hPa 0,0 l/m 0,0 km/h (0 Bft) NO 46 0 min 0,000 mm 0,0 UV-I 0 W/m 10,8 C 12,9 C 0,0 km/h (0 Bft) 0,00 %
16.09.2015 00:12 12,8 C 87 % 1009,8 hPa 0,0 l/m 0,0 km/h (0 Bft) NO 44 0 min 0,000 mm 0,0 UV-I 0 W/m 10,7 C 12,8 C 0,0 km/h (0 Bft) 0,00 %
16.09.2015 00:17 12,6 C 88 % 1009,9 hPa 0,0 l/m 0,0 km/h (0 Bft) NO 42 0 min 0,000 mm 0,0 UV-I 0 W/m 10,7 C 12,6 C 0,0 km/h (0 Bft) 0,00 %
16.09.2015 00:22 12,6 C 88 % 1009,9 hPa 0,0 l/m 0,0 km/h (0 Bft) NO 44 0 min 0,000 mm 0,0 UV-I 0 W/m 10,7 C 12,6 C 0,0 km/h (0 Bft) 0,00 %
16.09.2015 00:27 12,5 C 88 % 1009,8 hPa 0,0 l/m 0,0 km/h (0 Bft) NO 46 0 min 0,000 mm 0,0 UV-I 0 W/m 10,6 C 12,5 C 0,0 km/h (0 Bft) 0,00 %
16.09.2015 00:32 12,5 C 88 % 1009,5 hPa 0,0 l/m 0,0 km/h (0 Bft) N-NO 33 0 min 0,000 mm 0,0 UV-I 0 W/m 10,6 C 12,5 C 0,0 km/h (0 Bft) 0,00 %
16.09.2015 00:37 12,3 C 88 % 1009,5 hPa 0,0 l/m 0,0 km/h (0 Bft) NO 45 0 min 0,000 mm 0,0 UV-I 0 W/m 10,4 C 12,3 C 0,0 km/h (0 Bft) 0,00 %
16.09.2015 00:42 12,2 C 88 % 1009,4 hPa 0,0 l/m 0,0 km/h (0 Bft) NO 44 0 min 0,000 mm 0,0 UV-I 0 W/m 10,3 C 12,2 C 0,0 km/h (0 Bft) 0,00 %
16.09.2015 00:47 12,2 C 88 % 1009,3 hPa 0,0 l/m 0,0 km/h (0 Bft) NO 45 0 min 0,000 mm 0,0 UV-I 0 W/m 10,3 C 12,2 C 0,0 km/h (0 Bft) 0,00 %
16.09.2015 00:53 12,1 C 88 % 1009,3 hPa 0,0 l/m 0,0 km/h (0 Bft) NO 48 0 min 0,000 mm 0,0 UV-I 0 W/m 10,2 C 12,1 C 0,0 km/h (0 Bft) 0,00 %
16.09.2015 00:58 12,0 C 88 % 1009,0 hPa 0,0 l/m 0,0 km/h (0 Bft) NO 46 0 min 0,000 mm 0,0 UV-I 0 W/m 10,1 C 12,0 C 0,0 km/h (0 Bft) 0,00 %
16.09.2015 01:03 12,0 C 88 % 1009,2 hPa 0,0 l/m 0,0 km/h (0 Bft) NO 47 0 min 0,000 mm 0,0 UV-I 0 W/m 10,1 C 12,0 C 0,0 km/h (0 Bft) 0,00 %
16.09.2015 01:08 11,9 C 89 % 1009,1 hPa 0,0 l/m 0,0 km/h (0 Bft) NO 47 0 min 0,000 mm 0,0 UV-I 0 W/m 10,1 C 11,9 C 0,0 km/h (0 Bft) 0,00 %
16.09.2015 01:13 11,8 C 89 % 1009,0 hPa 0,0 l/m 0,0 km/h (0 Bft) NO 47 0 min 0,000 mm 0,0 UV-I 0 W/m 10,0 C 11,8 C 0,0 km/h (0 Bft) 0,00 %
16.09.2015 01:18 11,8 C 89 % 1008,9 hPa 0,0 l/m 0,0 km/h (0 Bft) NO 47 0 min 0,000 mm 0,0 UV-I 0 W/m 10,0 C 11,8 C 0,0 km/h (0 Bft) 0,00 %
16.09.2015 01:23 11,7 C 89 % 1008,9 hPa 0,0 l/m 0,0 km/h (0 Bft) NO 46 0 min 0,000 mm 0,0 UV-I 0 W/m 9,9 C 11,7 C 0,0 km/h (0 Bft) 0,00 %
16.09.2015 01:28 11,6 C 90 % 1008,8 hPa 0,0 l/m 0,0 km/h (0 Bft) NO 48 0 min 0,000 mm 0,0 UV-I 0 W/m 10,0 C 11,6 C 0,0 km/h (0 Bft) 0,00 %
16.09.2015 01:33 11,5 C 90 % 1008,7 hPa 0,0 l/m 0,0 km/h (0 Bft) NO 50 0 min 0,000 mm 0,0 UV-I 0 W/m 9,9 C 11,5 C 0,0 km/h (0 Bft) 0,00 %
16.09.2015 01:38 11,4 C 91 % 1008,7 hPa 0,0 l/m 0,0 km/h (0 Bft) NO 50 0 min 0,000 mm 0,0 UV-I 0 W/m 10,0 C 11,4 C 0,0 km/h (0 Bft) 0,00 %
16.09.2015 01:43 11,4 C 91 % 1008,8 hPa 0,0 l/m 0,0 km/h (0 Bft) NO 50 0 min 0,000 mm 0,0 UV-I 0 W/m 10,0 C 11,4 C 0,0 km/h (0 Bft) 0,00 %
16.09.2015 01:48 11,3 C 91 % 1008,6 hPa 0,0 l/m 0,0 km/h (0 Bft) NO 50 0 min 0,000 mm 0,0 UV-I 0 W/m 9,9 C 11,3 C 0,0 km/h (0 Bft) 0,00 %
16.09.2015 01:53 11,2 C 91 % 1008,5 hPa 0,0 l/m 0,0 km/h (0 Bft) NO 55 0 min 0,000 mm 0,0 UV-I 0 W/m 9,8 C 11,2 C 0,0 km/h (0 Bft) 0,00 %
16.09.2015 01:58 11,1 C 92 % 1008,6 hPa 0,0 l/m 0,0 km/h (0 Bft) NO 55 0 min 0,000 mm 0,0 UV-I 0 W/m 9,8 C 11,1 C 0,0 km/h (0 Bft) 0,00 %
16.09.2015 02:03 11,0 C 92 % 1008,3 hPa 0,0 l/m 0,0 km/h (0 Bft) NO 55 0 min 0,000 mm 0,0 UV-I 0 W/m 9,8 C 11,0 C 0,0 km/h (0 Bft) 0,00 %
16.09.2015 02:08 11,0 C 92 % 1008,2 hPa 0,0 l/m 0,0 km/h (0 Bft) NO 55 0 min 0,000 mm 0,0 UV-I 0 W/m 9,8 C 11,0 C 0,0 km/h (0 Bft) 0,00 %
16.09.2015 02:13 10,9 C 93 % 1008,3 hPa 0,0 l/m 0,0 km/h (0 Bft) NO 53 0 min 0,000 mm 0,0 UV-I 0 W/m 9,8 C 10,9 C 0,0 km/h (0 Bft) 0,00 %
16.09.2015 02:18 10,9 C 93 % 1008,1 hPa 0,0 l/m 0,0 km/h (0 Bft) NO 45 0 min 0,000 mm 0,0 UV-I 0 W/m 9,8 C 10,9 C 0,0 km/h (0 Bft) 0,00 %
16.09.2015 02:23 10,8 C 93 % 1008,0 hPa 0,0 l/m 0,0 km/h (0 Bft) NO 48 0 min 0,000 mm 0,0 UV-I 0 W/m 9,7 C 10,8 C 0,0 km/h (0 Bft) 0,00 %
16.09.2015 02:28 10,8 C 94 % 1007,9 hPa 0,0 l/m 0,0 km/h (0 Bft) NO 43 0 min 0,000 mm 0,0 UV-I 0 W/m 9,9 C 10,8 C 0,0 km/h (0 Bft) 0,00 %
16.09.2015 02:33 10,7 C 94 % 1007,8 hPa 0,0 l/m 0,0 km/h (0 Bft) NO 45 0 min 0,000 mm 0,0 UV-I 0 W/m 9,8 C 10,7 C 0,0 km/h (0 Bft) 0,00 %
16.09.2015 02:38 10,7 C 94 % 1007,7 hPa 0,0 l/m 0,0 km/h (0 Bft) NO 42 0 min 0,000 mm 0,0 UV-I 0 W/m 9,8 C 10,7 C 0,0 km/h (0 Bft) 0,00 %
16.09.2015 02:43 10,6 C 94 % 1007,8 hPa 0,0 l/m 0,0 km/h (0 Bft) NO 38 0 min 0,000 mm 0,0 UV-I 0 W/m 9,7 C 10,6 C 0,0 km/h (0 Bft) 0,00 %
16.09.2015 02:48 10,6 C 94 % 1007,7 hPa 0,0 l/m 0,0 km/h (0 Bft) NO 43 0 min 0,000 mm 0,0 UV-I 0 W/m 9,7 C 10,6 C 0,0 km/h (0 Bft) 0,00 %
16.09.2015 02:53 10,5 C 94 % 1007,7 hPa 0,0 l/m 0,0 km/h (0 Bft) NO 44 0 min 0,000 mm 0,0 UV-I 0 W/m 9,6 C 10,5 C 0,0 km/h (0 Bft) 0,00 %
16.09.2015 02:58 10,5 C 94 % 1007,8 hPa 0,0 l/m 0,0 km/h (0 Bft) NO 41 0 min 0,000 mm 0,0 UV-I 0 W/m 9,6 C 10,5 C 0,0 km/h (0 Bft) 0,00 %
16.09.2015 03:03 10,4 C 95 % 1007,6 hPa 0,0 l/m 0,0 km/h (0 Bft) O-SO 112 0 min 0,000 mm 0,0 UV-I 0 W/m 9,6 C 10,4 C 0,0 km/h (0 Bft) 0,00 %
16.09.2015 03:08 10,4 C 95 % 1007,4 hPa 0,0 l/m 0,0 km/h (0 Bft) NO 48 0 min 0,000 mm 0,0 UV-I 0 W/m 9,6 C 10,4 C 0,0 km/h (0 Bft) 0,00 %
16.09.2015 03:13 10,5 C 95 % 1007,4 hPa 0,0 l/m 0,0 km/h (0 Bft) O 80 0 min 0,000 mm 0,0 UV-I 0 W/m 9,7 C 10,5 C 0,0 km/h (0 Bft) 0,00 %
16.09.2015 03:18 10,5 C 95 % 1007,6 hPa 0,0 l/m 0,0 km/h (0 Bft) O 79 0 min 0,000 mm 0,0 UV-I 0 W/m 9,7 C 10,5 C 0,0 km/h (0 Bft) 0,00 %
16.09.2015 03:23 10,5 C 95 % 1007,7 hPa 0,0 l/m 0,0 km/h (0 Bft) O-NO 77 0 min 0,000 mm 0,0 UV-I 0 W/m 9,7 C 10,5 C 0,0 km/h (0 Bft) 0,00 %
16.09.2015 03:28 10,5 C 96 % 1007,7 hPa 0,0 l/m 0,0 km/h (0 Bft) NO 52 0 min 0,000 mm 0,0 UV-I 0 W/m 9,9 C 10,5 C 0,0 km/h (0 Bft) 0,00 %
16.09.2015 03:33 10,5 C 96 % 1007,6 hPa 0,0 l/m 0,0 km/h (0 Bft) O-NO 69 0 min 0,000 mm 0,0 UV-I 0 W/m 9,9 C 10,5 C 0,0 km/h (0 Bft) 0,00 %
16.09.2015 03:38 10,5 C 96 % 1007,6 hPa 0,0 l/m 0,0 km/h (0 Bft) NO 56 0 min 0,000 mm 0,0 UV-I 0 W/m 9,9 C 10,5 C 0,0 km/h (0 Bft) 0,00 %
16.09.2015 03:43 10,5 C 96 % 1007,7 hPa 0,0 l/m 0,0 km/h (0 Bft) O 101 0 min 0,000 mm 0,0 UV-I 0 W/m 9,9 C 10,5 C 0,0 km/h (0 Bft) 0,00 %
16.09.2015 03:48 10,4 C 96 % 1007,5 hPa 0,0 l/m 0,0 km/h (0 Bft) O-NO 71 0 min 0,000 mm 0,0 UV-I 0 W/m 9,8 C 10,4 C 0,0 km/h (0 Bft) 0,00 %
16.09.2015 03:53 10,4 C 96 % 1007,3 hPa 0,0 l/m 0,0 km/h (0 Bft) O-SO 105 0 min 0,000 mm 0,0 UV-I 0 W/m 9,8 C 10,4 C 0,0 km/h (0 Bft) 0,00 %
16.09.2015 03:58 10,4 C 96 % 1007,4 hPa 0,0 l/m 0,0 km/h (0 Bft) NO 54 0 min 0,000 mm 0,0 UV-I 0 W/m 9,8 C 10,4 C 0,0 km/h (0 Bft) 0,00 %
16.09.2015 04:03 10,4 C 97 % 1007,2 hPa 0,0 l/m 0,0 km/h (0 Bft) NO 49 0 min 0,000 mm 0,0 UV-I 0 W/m 9,9 C 10,4 C 0,0 km/h (0 Bft) 0,00 %
16.09.2015 04:08 10,4 C 96 % 1007,1 hPa 0,0 l/m 0,0 km/h (0 Bft) NO 44 0 min 0,000 mm 0,0 UV-I 0 W/m 9,8 C 10,4 C 0,0 km/h (0 Bft) 0,00 %
16.09.2015 04:13 10,3 C 96 % 1007,2 hPa 0,0 l/m 0,0 km/h (0 Bft) O-NO 62 0 min 0,000 mm 0,0 UV-I 0 W/m 9,7 C 10,3 C 0,0 km/h (0 Bft) 0,00 %
16.09.2015 04:18 10,2 C 96 % 1007,3 hPa 0,0 l/m 0,0 km/h (0 Bft) NO 56 0 min 0,000 mm 0,0 UV-I 0 W/m 9,6 C 10,2 C 0,0 km/h (0 Bft) 0,00 %
16.09.2015 04:23 10,0 C 97 % 1007,0 hPa 0,0 l/m 0,0 km/h (0 Bft) NO 50 0 min 0,000 mm 0,0 UV-I 0 W/m 9,5 C 10,0 C 0,0 km/h (0 Bft) 0,00 %
16.09.2015 04:28 9,9 C 97 % 1007,0 hPa 0,0 l/m 0,0 km/h (0 Bft) N-NO 32 0 min 0,000 mm 0,0 UV-I 0 W/m 9,4 C 9,9 C 0,0 km/h (0 Bft) 0,00 %
16.09.2015 04:33 9,7 C 97 % 1007,0 hPa 0,0 l/m 0,0 km/h (0 Bft) NO 39 0 min 0,000 mm 0,0 UV-I 0 W/m 9,2 C 9,7 C 0,0 km/h (0 Bft) 0,00 %
16.09.2015 04:38 9,7 C 97 % 1006,8 hPa 0,0 l/m 0,0 km/h (0 Bft) NO 41 0 min 0,000 mm 0,0 UV-I 0 W/m 9,2 C 9,7 C 0,0 km/h (0 Bft) 0,00 %
16.09.2015 04:43 9,7 C 97 % 1007,0 hPa 0,0 l/m 0,0 km/h (0 Bft) NO 53 0 min 0,000 mm 0,0 UV-I 0 W/m 9,2 C 9,7 C 0,0 km/h (0 Bft) 0,00 %
16.09.2015 04:48 9,7 C 97 % 1006,8 hPa 0,0 l/m 0,0 km/h (0 Bft) NO 43 0 min 0,000 mm 0,0 UV-I 0 W/m 9,2 C 9,7 C 0,0 km/h (0 Bft) 0,00 %
16.09.2015 04:53 9,6 C 98 % 1006,9 hPa 0,0 l/m 0,0 km/h (0 Bft) NO 53 0 min 0,000 mm 0,0 UV-I 0 W/m 9,3 C 9,6 C 0,0 km/h (0 Bft) 0,00 %
16.09.2015 04:58 9,6 C 98 % 1006,6 hPa 0,0 l/m 1,8 km/h (1 Bft) O-SO 102 0 min 0,000 mm 0,0 UV-I 0 W/m 9,3 C 9,6 C 4,0 km/h (1 Bft) 0,00 %
16.09.2015 05:03 9,8 C 97 % 1006,7 hPa 0,0 l/m 0,7 km/h (0 Bft) O-SO 105 0 min 0,000 mm 0,0 UV-I 0 W/m 9,3 C 9,8 C 4,0 km/h (1 Bft) 0,00 %
16.09.2015 05:08 10,2 C 98 % 1006,4 hPa 0,0 l/m 1,4 km/h (1 Bft) O 98 0 min 0,000 mm 0,0 UV-I 0 W/m 9,9 C 10,2 C 4,0 km/h (1 Bft) 0,00 %
16.09.2015 05:13 10,5 C 98 % 1006,2 hPa 0,0 l/m 0,7 km/h (0 Bft) O-NO 77 0 min 0,000 mm 0,0 UV-I 0 W/m 10,2 C 10,5 C 4,0 km/h (1 Bft) 0,00 %
16.09.2015 05:18 10,8 C 97 % 1006,3 hPa 0,0 l/m 0,0 km/h (0 Bft) O-SO 120 0 min 0,000 mm 0,0 UV-I 0 W/m 10,3 C 10,8 C 0,0 km/h (0 Bft) 0,00 %
16.09.2015 05:23 10,9 C 97 % 1006,2 hPa 0,0 l/m 0,0 km/h (0 Bft) NO 53 0 min 0,000 mm 0,0 UV-I 0 W/m 10,4 C 10,9 C 0,0 km/h (0 Bft) 0,00 %
16.09.2015 05:28 11,1 C 97 % 1006,2 hPa 0,0 l/m 1,4 km/h (1 Bft) SO 131 0 min 0,000 mm 0,0 UV-I 0 W/m 10,6 C 11,1 C 4,0 km/h (1 Bft) 0,00 %
16.09.2015 05:33 11,2 C 97 % 1006,2 hPa 0,0 l/m 0,0 km/h (0 Bft) O 89 0 min 0,000 mm 0,0 UV-I 0 W/m 10,7 C 11,2 C 0,0 km/h (0 Bft) 0,00 %
16.09.2015 05:38 11,3 C 97 % 1006,1 hPa 0,0 l/m 2,9 km/h (1 Bft) SO 132 0 min 0,000 mm 0,0 UV-I 0 W/m 10,8 C 11,3 C 4,0 km/h (1 Bft) 0,00 %
16.09.2015 05:43 11,3 C 97 % 1006,2 hPa 0,0 l/m 0,0 km/h (0 Bft) O-NO 57 0 min 0,000 mm 0,0 UV-I 0 W/m 10,8 C 11,3 C 0,0 km/h (0 Bft) 0,00 %
16.09.2015 05:48 11,3 C 97 % 1006,3 hPa 0,0 l/m 0,0 km/h (0 Bft) NO 42 0 min 0,000 mm 0,0 UV-I 0 W/m 10,8 C 11,3 C 0,0 km/h (0 Bft) 0,00 %
16.09.2015 05:53 11,3 C 97 % 1006,3 hPa 0,0 l/m 0,0 km/h (0 Bft) NO 39 0 min 0,000 mm 0,0 UV-I 0 W/m 10,8 C 11,3 C 0,0 km/h (0 Bft) 0,00 %
16.09.2015 05:58 11,1 C 97 % 1005,9 hPa 0,0 l/m 0,0 km/h (0 Bft) O-NO 65 0 min 0,000 mm 0,0 UV-I 0 W/m 10,6 C 11,1 C 0,0 km/h (0 Bft) 0,00 %
16.09.2015 06:03 11,0 C 98 % 1005,9 hPa 0,0 l/m 0,0 km/h (0 Bft) O 87 0 min 0,000 mm 0,0 UV-I 0 W/m 10,7 C 11,0 C 0,0 km/h (0 Bft) 0,00 %
16.09.2015 06:08 10,9 C 98 % 1005,9 hPa 0,0 l/m 0,0 km/h (0 Bft) NO 52 0 min 0,000 mm 0,0 UV-I 0 W/m 10,6 C 10,9 C 0,0 km/h (0 Bft) 0,00 %
16.09.2015 06:13 10,8 C 98 % 1005,9 hPa 0,0 l/m 0,0 km/h (0 Bft) O-NO 64 0 min 0,000 mm 0,0 UV-I 0 W/m 10,5 C 10,8 C 0,0 km/h (0 Bft) 0,00 %
16.09.2015 06:18 10,8 C 98 % 1005,9 hPa 0,0 l/m 0,0 km/h (0 Bft) NO 50 0 min 0,000 mm 0,0 UV-I 0 W/m 10,5 C 10,8 C 0,0 km/h (0 Bft) 0,00 %
16.09.2015 06:23 10,7 C 98 % 1005,8 hPa 0,0 l/m 0,0 km/h (0 Bft) NO 50 0 min 0,000 mm 0,0 UV-I 0 W/m 10,4 C 10,7 C 0,0 km/h (0 Bft) 0,00 %
16.09.2015 06:28 10,6 C 98 % 1005,7 hPa 0,0 l/m 0,0 km/h (0 Bft) NO 38 0 min 0,000 mm 0,0 UV-I 0 W/m 10,3 C 10,6 C 0,0 km/h (0 Bft) 0,00 %
16.09.2015 06:33 10,5 C 98 % 1005,6 hPa 0,0 l/m 0,0 km/h (0 Bft) O-SO 109 0 min 0,000 mm 0,0 UV-I 0 W/m 10,2 C 10,5 C 0,0 km/h (0 Bft) 0,00 %
16.09.2015 06:38 10,4 C 98 % 1005,3 hPa 0,0 l/m 0,0 km/h (0 Bft) NO 51 0 min 0,000 mm 0,0 UV-I 0 W/m 10,1 C 10,4 C 0,0 km/h (0 Bft) 0,00 %
16.09.2015 06:43 10,4 C 98 % 1005,4 hPa 0,0 l/m 0,0 km/h (0 Bft) O-NO 69 0 min 0,000 mm 0,0 UV-I 0 W/m 10,1 C 10,4 C 0,0 km/h (0 Bft) 0,00 %
16.09.2015 06:48 10,4 C 98 % 1005,4 hPa 0,0 l/m 0,0 km/h (0 Bft) NO 53 0 min 0,000 mm 0,0 UV-I 2 W/m 10,1 C 10,4 C 0,0 km/h (0 Bft) 0,00 %
16.09.2015 06:53 10,3 C 98 % 1005,5 hPa 0,0 l/m 0,0 km/h (0 Bft) O 95 0 min 0,000 mm 0,0 UV-I 9 W/m 10,0 C 10,3 C 0,0 km/h (0 Bft) 0,00 %
16.09.2015 06:58 10,2 C 98 % 1005,3 hPa 0,0 l/m 0,0 km/h (0 Bft) NO 56 0 min 0,000 mm 0,0 UV-I 17 W/m 9,9 C 10,2 C 0,0 km/h (0 Bft) 0,00 %
16.09.2015 07:03 10,3 C 98 % 1005,4 hPa 0,0 l/m 0,0 km/h (0 Bft) O-NO 72 0 min 0,000 mm 0,0 UV-I 22 W/m 10,0 C 10,3 C 0,0 km/h (0 Bft) 0,00 %
16.09.2015 07:08 10,3 C 98 % 1005,3 hPa 0,0 l/m 0,0 km/h (0 Bft) O-NO 68 0 min 0,000 mm 0,0 UV-I 32 W/m 10,0 C 10,3 C 0,0 km/h (0 Bft) 0,00 %
16.09.2015 07:13 10,5 C 98 % 1005,1 hPa 0,0 l/m 0,0 km/h (0 Bft) NO 45 0 min 0,000 mm 0,0 UV-I 30 W/m 10,2 C 10,5 C 0,0 km/h (0 Bft) 0,00 %
16.09.2015 07:18 10,7 C 98 % 1005,3 hPa 0,0 l/m 0,0 km/h (0 Bft) NO 42 0 min 0,000 mm 0,0 UV-I 32 W/m 10,4 C 10,7 C 0,0 km/h (0 Bft) 0,00 %
16.09.2015 07:23 10,7 C 98 % 1005,1 hPa 0,0 l/m 0,0 km/h (0 Bft) O-NO 70 0 min 0,000 mm 0,0 UV-I 40 W/m 10,4 C 10,7 C 0,0 km/h (0 Bft) 0,00 %
16.09.2015 07:28 10,7 C 98 % 1004,9 hPa 0,0 l/m 0,0 km/h (0 Bft) O-NO 70 0 min 0,000 mm 0,0 UV-I 51 W/m 10,4 C 10,7 C 0,0 km/h (0 Bft) 0,00 %
16.09.2015 07:33 10,7 C 97 % 1004,5 hPa 0,0 l/m 0,0 km/h (0 Bft) O-NO 67 5 min 0,000 mm 0,0 UV-I 81 W/m 10,2 C 10,7 C 0,0 km/h (0 Bft) 0,00 %
16.09.2015 07:38 11,0 C 97 % 1004,5 hPa 0,0 l/m 0,0 km/h (0 Bft) NO 52 5 min 0,000 mm 0,0 UV-I 92 W/m 10,5 C 11,0 C 0,0 km/h (0 Bft) 0,00 %
16.09.2015 07:43 11,5 C 97 % 1004,3 hPa 0,0 l/m 0,0 km/h (0 Bft) O-NO 77 5 min 0,000 mm 0,0 UV-I 103 W/m 11,0 C 11,5 C 0,0 km/h (0 Bft) 0,00 %
16.09.2015 07:48 12,0 C 97 % 1004,2 hPa 0,0 l/m 0,0 km/h (0 Bft) O-NO 62 5 min 0,000 mm 0,0 UV-I 111 W/m 11,5 C 12,0 C 0,0 km/h (0 Bft) 0,00 %
16.09.2015 07:53 12,5 C 97 % 1004,4 hPa 0,0 l/m 0,0 km/h (0 Bft) NO 44 5 min 0,000 mm 0,0 UV-I 116 W/m 12,0 C 12,5 C 0,0 km/h (0 Bft) 0,00 %
16.09.2015 07:58 12,9 C 96 % 1004,5 hPa 0,0 l/m 0,0 km/h (0 Bft) NO 56 5 min 0,000 mm 0,0 UV-I 114 W/m 12,3 C 12,9 C 0,0 km/h (0 Bft) 0,00 %
16.09.2015 08:03 13,5 C 95 % 1004,5 hPa 0,0 l/m 0,0 km/h (0 Bft) O 83 0 min 0,000 mm 1,0 UV-I 116 W/m 12,7 C 13,5 C 0,0 km/h (0 Bft) 0,00 %
16.09.2015 08:08 13,9 C 93 % 1004,5 hPa 0,0 l/m 0,0 km/h (0 Bft) O-NO 58 5 min 0,000 mm 1,0 UV-I 136 W/m 12,8 C 13,9 C 0,0 km/h (0 Bft) 0,00 %
16.09.2015 08:13 14,1 C 90 % 1004,3 hPa 0,0 l/m 0,4 km/h (0 Bft) O-SO 105 5 min 0,000 mm 1,0 UV-I 138 W/m 12,5 C 14,1 C 4,0 km/h (1 Bft) 0,00 %
16.09.2015 08:18 14,4 C 86 % 1004,4 hPa 0,0 l/m 2,9 km/h (1 Bft) O-NO 77 5 min 0,000 mm 1,0 UV-I 154 W/m 12,1 C 14,4 C 4,0 km/h (1 Bft) 0,00 %
16.09.2015 08:23 14,5 C 84 % 1004,3 hPa 0,0 l/m 0,4 km/h (0 Bft) O-NO 68 5 min 0,000 mm 1,0 UV-I 183 W/m 11,8 C 14,5 C 4,0 km/h (1 Bft) 0,00 %
16.09.2015 08:28 14,6 C 82 % 1004,4 hPa 0,0 l/m 1,4 km/h (1 Bft) O 81 5 min 0,000 mm 1,0 UV-I 193 W/m 11,6 C 14,6 C 4,0 km/h (1 Bft) 0,00 %
16.09.2015 08:33 15,0 C 81 % 1004,1 hPa 0,0 l/m 2,9 km/h (1 Bft) O-SO 115 5 min 0,000 mm 1,0 UV-I 198 W/m 11,8 C 15,0 C 4,0 km/h (1 Bft) 0,00 %
16.09.2015 08:38 15,4 C 79 % 1004,3 hPa 0,0 l/m 2,2 km/h (1 Bft) O-SO 110 5 min 0,000 mm 1,0 UV-I 198 W/m 11,8 C 15,4 C 4,0 km/h (1 Bft) 0,00 %
16.09.2015 08:43 15,6 C 78 % 1004,4 hPa 0,0 l/m 0,0 km/h (0 Bft) NO 48 5 min 0,000 mm 1,0 UV-I 194 W/m 11,8 C 15,6 C 0,0 km/h (0 Bft) 0,00 %
16.09.2015 08:48 15,8 C 77 % 1004,2 hPa 0,0 l/m 4,0 km/h (1 Bft) O 96 0 min 0,000 mm 1,0 UV-I 166 W/m 11,8 C 15,8 C 7,9 km/h (2 Bft) 0,00 %
16.09.2015 08:53 15,8 C 77 % 1004,4 hPa 0,0 l/m 3,2 km/h (1 Bft) SO 131 0 min 0,000 mm 1,0 UV-I 159 W/m 11,8 C 15,8 C 7,9 km/h (2 Bft) 0,00 %
16.09.2015 08:58 15,4 C 79 % 1004,5 hPa 0,0 l/m 1,4 km/h (1 Bft) O 94 0 min 0,000 mm 1,0 UV-I 164 W/m 11,8 C 15,4 C 4,0 km/h (1 Bft) 0,00 %
16.09.2015 09:03 15,0 C 81 % 1004,5 hPa 0,0 l/m 0,4 km/h (0 Bft) NO 54 0 min 0,000 mm 1,0 UV-I 168 W/m 11,8 C 15,0 C 4,0 km/h (1 Bft) 0,00 %
16.09.2015 09:08 14,8 C 81 % 1004,4 hPa 0,0 l/m 0,4 km/h (0 Bft) O-NO 74 0 min 0,000 mm 1,0 UV-I 180 W/m 11,6 C 14,8 C 4,0 km/h (1 Bft) 0,00 %
16.09.2015 09:13 14,7 C 82 % 1004,4 hPa 0,0 l/m 0,0 km/h (0 Bft) SO 139 0 min 0,000 mm 1,0 UV-I 194 W/m 11,7 C 14,7 C 0,0 km/h (0 Bft) 0,00 %
16.09.2015 09:18 14,7 C 82 % 1004,3 hPa 0,0 l/m 0,4 km/h (0 Bft) NO 54 0 min 0,000 mm 1,0 UV-I 207 W/m 11,7 C 14,7 C 4,0 km/h (1 Bft) 0,00 %
16.09.2015 09:23 14,8 C 82 % 1004,4 hPa 0,0 l/m 0,0 km/h (0 Bft) O-NO 60 0 min 0,000 mm 1,0 UV-I 204 W/m 11,8 C 14,8 C 0,0 km/h (0 Bft) 0,00 %
16.09.2015 09:28 14,9 C 81 % 1004,1 hPa 0,0 l/m 6,8 km/h (2 Bft) O-SO 104 0 min 0,000 mm 1,0 UV-I 202 W/m 11,7 C 14,7 C 7,9 km/h (2 Bft) 0,00 %
16.09.2015 09:33 14,9 C 81 % 1004,2 hPa 0,0 l/m 0,4 km/h (0 Bft) O-SO 111 0 min 0,000 mm 1,0 UV-I 205 W/m 11,7 C 14,9 C 4,0 km/h (1 Bft) 0,00 %
16.09.2015 09:38 15,0 C 81 % 1004,4 hPa 0,0 l/m 2,9 km/h (1 Bft) SO 124 0 min 0,000 mm 1,0 UV-I 216 W/m 11,8 C 15,0 C 4,0 km/h (1 Bft) 0,00 %
16.09.2015 09:43 15,1 C 80 % 1004,1 hPa 0,0 l/m 4,0 km/h (1 Bft) S 173 0 min 0,000 mm 1,0 UV-I 208 W/m 11,7 C 15,1 C 7,9 km/h (2 Bft) 0,00 %
16.09.2015 09:48 15,1 C 80 % 1004,2 hPa 0,0 l/m 0,4 km/h (0 Bft) O-SO 103 0 min 0,000 mm 1,0 UV-I 213 W/m 11,7 C 15,1 C 4,0 km/h (1 Bft) 0,00 %
16.09.2015 09:53 15,1 C 80 % 1004,4 hPa 0,0 l/m 0,0 km/h (0 Bft) O-NO 73 0 min 0,000 mm 1,0 UV-I 226 W/m 11,7 C 15,1 C 0,0 km/h (0 Bft) 0,00 %
16.09.2015 09:58 15,3 C 79 % 1004,4 hPa 0,0 l/m 2,9 km/h (1 Bft) O-SO 123 0 min 0,000 mm 1,0 UV-I 252 W/m 11,7 C 15,3 C 4,0 km/h (1 Bft) 0,00 %
16.09.2015 10:03 15,5 C 79 % 1004,5 hPa 0,0 l/m 0,0 km/h (0 Bft) O-SO 107 0 min 0,000 mm 1,0 UV-I 263 W/m 11,9 C 15,5 C 0,0 km/h (0 Bft) 0,00 %
16.09.2015 10:08 15,7 C 77 % 1004,4 hPa 0,0 l/m 2,9 km/h (1 Bft) O-NO 75 5 min 0,000 mm 2,0 UV-I 358 W/m 11,7 C 15,7 C 4,0 km/h (1 Bft) 0,00 %
16.09.2015 10:13 16,2 C 74 % 1004,3 hPa 0,0 l/m 0,0 km/h (0 Bft) NO 41 5 min 0,000 mm 2,0 UV-I 376 W/m 11,6 C 16,2 C 0,0 km/h (0 Bft) 0,00 %
16.09.2015 10:18 16,9 C 72 % 1004,2 hPa 0,0 l/m 0,7 km/h (0 Bft) NO 49 5 min 0,000 mm 2,0 UV-I 432 W/m 11,8 C 16,9 C 4,0 km/h (1 Bft) 0,00 %
16.09.2015 10:23 17,8 C 67 % 1004,3 hPa 0,0 l/m 2,9 km/h (1 Bft) SO 130 5 min 0,000 mm 2,0 UV-I 394 W/m 11,6 C 17,8 C 7,9 km/h (2 Bft) 0,00 %
16.09.2015 10:28 18,5 C 65 % 1004,1 hPa 0,0 l/m 6,8 km/h (2 Bft) O 80 0 min 0,000 mm 1,0 UV-I 300 W/m 11,8 C 18,3 C 11,9 km/h (2 Bft) 0,00 %
16.09.2015 10:33 18,5 C 67 % 1004,0 hPa 0,0 l/m 6,5 km/h (2 Bft) O 89 0 min 0,000 mm 1,0 UV-I 281 W/m 12,3 C 18,5 C 7,9 km/h (2 Bft) 0,00 %
16.09.2015 10:38 18,0 C 69 % 1004,2 hPa 0,0 l/m 4,3 km/h (1 Bft) O-SO 104 0 min 0,000 mm 1,0 UV-I 285 W/m 12,2 C 18,0 C 7,9 km/h (2 Bft) 0,00 %
16.09.2015 10:43 17,8 C 68 % 1004,2 hPa 0,0 l/m 0,7 km/h (0 Bft) SO 144 5 min 0,000 mm 2,0 UV-I 390 W/m 11,8 C 17,8 C 4,0 km/h (1 Bft) 0,00 %
16.09.2015 10:48 18,2 C 66 % 1004,1 hPa 0,0 l/m 0,4 km/h (0 Bft) O-NO 75 0 min 0,000 mm 1,0 UV-I 224 W/m 11,7 C 18,2 C 4,0 km/h (1 Bft) 0,00 %
16.09.2015 10:53 18,4 C 66 % 1004,1 hPa 0,0 l/m 0,0 km/h (0 Bft) NO 35 0 min 0,000 mm 1,0 UV-I 209 W/m 11,9 C 18,4 C 0,0 km/h (0 Bft) 0,00 %
16.09.2015 10:58 18,2 C 69 % 1004,1 hPa 0,0 l/m 0,0 km/h (0 Bft) O 83 0 min 0,000 mm 1,0 UV-I 201 W/m 12,4 C 18,2 C 0,0 km/h (0 Bft) 0,00 %
16.09.2015 11:03 17,9 C 69 % 1004,1 hPa 0,0 l/m 0,4 km/h (0 Bft) O-NO 64 0 min 0,000 mm 1,0 UV-I 288 W/m 12,1 C 17,9 C 4,0 km/h (1 Bft) 0,00 %
16.09.2015 11:08 18,1 C 69 % 1003,9 hPa 0,0 l/m 1,4 km/h (1 Bft) O 94 0 min 0,000 mm 1,0 UV-I 295 W/m 12,3 C 18,1 C 4,0 km/h (1 Bft) 0,00 %
16.09.2015 11:13 18,6 C 67 % 1003,8 hPa 0,0 l/m 4,0 km/h (1 Bft) S 173 0 min 0,000 mm 1,0 UV-I 251 W/m 12,3 C 18,6 C 7,9 km/h (2 Bft) 0,00 %
16.09.2015 11:18 18,7 C 68 % 1003,8 hPa 0,0 l/m 4,7 km/h (1 Bft) SO 140 0 min 0,000 mm 1,0 UV-I 261 W/m 12,7 C 18,7 C 7,9 km/h (2 Bft) 0,00 %
16.09.2015 11:23 18,6 C 69 % 1003,6 hPa 0,0 l/m 5,4 km/h (1 Bft) O-SO 118 5 min 0,000 mm 2,0 UV-I 489 W/m 12,8 C 18,6 C 7,9 km/h (2 Bft) 0,00 %
16.09.2015 11:28 18,9 C 66 % 1003,6 hPa 0,0 l/m 0,7 km/h (0 Bft) O-NO 65 5 min 0,000 mm 2,0 UV-I 498 W/m 12,4 C 18,9 C 4,0 km/h (1 Bft) 0,00 %
16.09.2015 11:33 19,4 C 64 % 1003,3 hPa 0,0 l/m 4,7 km/h (1 Bft) NO 52 0 min 0,000 mm 2,0 UV-I 342 W/m 12,4 C 19,4 C 7,9 km/h (2 Bft) 0,00 %
16.09.2015 11:38 19,6 C 64 % 1003,4 hPa 0,0 l/m 0,4 km/h (0 Bft) SO 138 5 min 0,000 mm 2,0 UV-I 612 W/m 12,6 C 19,6 C 4,0 km/h (1 Bft) 0,00 %
16.09.2015 11:43 19,9 C 63 % 1003,5 hPa 0,0 l/m 6,5 km/h (2 Bft) O-NO 76 5 min 0,000 mm 2,0 UV-I 618 W/m 12,6 C 19,9 C 11,9 km/h (2 Bft) 0,00 %
16.09.2015 11:48 20,3 C 61 % 1003,3 hPa 0,0 l/m 2,9 km/h (1 Bft) NO 48 5 min 0,000 mm 2,0 UV-I 582 W/m 12,5 C 20,3 C 7,9 km/h (2 Bft) 0,00 %
16.09.2015 11:53 20,7 C 62 % 1003,2 hPa 0,0 l/m 6,8 km/h (2 Bft) O 101 5 min 0,000 mm 2,0 UV-I 604 W/m 13,2 C 20,5 C 7,9 km/h (2 Bft) 0,00 %
16.09.2015 11:58 20,8 C 61 % 1003,1 hPa 0,0 l/m 2,2 km/h (1 Bft) O-NO 77 5 min 0,000 mm 2,0 UV-I 613 W/m 13,0 C 20,8 C 4,0 km/h (1 Bft) 0,00 %
16.09.2015 12:03 20,9 C 60 % 1003,2 hPa 0,0 l/m 0,4 km/h (0 Bft) NO 50 5 min 0,000 mm 3,0 UV-I 658 W/m 12,8 C 20,9 C 4,0 km/h (1 Bft) 0,00 %
16.09.2015 12:08 21,0 C 61 % 1003,5 hPa 0,0 l/m 0,7 km/h (0 Bft) O-NO 62 5 min 0,000 mm 2,0 UV-I 621 W/m 13,2 C 21,0 C 4,0 km/h (1 Bft) 0,00 %
16.09.2015 12:13 21,0 C 62 % 1003,2 hPa 0,0 l/m 0,7 km/h (0 Bft) NO 38 5 min 0,000 mm 2,0 UV-I 596 W/m 13,4 C 21,0 C 4,0 km/h (1 Bft) 0,00 %
16.09.2015 12:18 21,1 C 61 % 1003,2 hPa 0,0 l/m 4,7 km/h (1 Bft) S-SO 163 5 min 0,000 mm 2,0 UV-I 623 W/m 13,3 C 21,1 C 7,9 km/h (2 Bft) 0,00 %
16.09.2015 12:23 21,2 C 61 % 1003,0 hPa 0,0 l/m 4,7 km/h (1 Bft) O-SO 110 5 min 0,000 mm 2,0 UV-I 611 W/m 13,4 C 21,2 C 7,9 km/h (2 Bft) 0,00 %
16.09.2015 12:28 21,2 C 61 % 1003,0 hPa 0,0 l/m 2,9 km/h (1 Bft) O 96 5 min 0,000 mm 2,0 UV-I 602 W/m 13,4 C 21,2 C 4,0 km/h (1 Bft) 0,00 %
16.09.2015 12:33 21,2 C 60 % 1002,9 hPa 0,0 l/m 1,8 km/h (1 Bft) O-NO 78 5 min 0,000 mm 2,0 UV-I 614 W/m 13,1 C 21,2 C 4,0 km/h (1 Bft) 0,00 %
16.09.2015 12:38 21,2 C 61 % 1002,6 hPa 0,0 l/m 4,0 km/h (1 Bft) NO 55 5 min 0,000 mm 3,0 UV-I 689 W/m 13,4 C 21,2 C 7,9 km/h (2 Bft) 0,00 %
16.09.2015 12:43 21,2 C 61 % 1002,8 hPa 0,0 l/m 2,9 km/h (1 Bft) O-NO 64 5 min 0,000 mm 3,0 UV-I 684 W/m 13,4 C 21,2 C 7,9 km/h (2 Bft) 0,00 %
16.09.2015 12:48 21,3 C 61 % 1002,7 hPa 0,0 l/m 2,9 km/h (1 Bft) O 91 5 min 0,000 mm 3,0 UV-I 692 W/m 13,5 C 21,3 C 4,0 km/h (1 Bft) 0,00 %
16.09.2015 12:53 21,5 C 61 % 1002,7 hPa 0,0 l/m 0,7 km/h (0 Bft) O-NO 61 5 min 0,000 mm 3,0 UV-I 697 W/m 13,7 C 21,5 C 4,0 km/h (1 Bft) 0,00 %
16.09.2015 12:58 21,6 C 61 % 1002,5 hPa 0,0 l/m 5,8 km/h (2 Bft) O 96 5 min 0,000 mm 3,0 UV-I 530 W/m 13,7 C 21,6 C 7,9 km/h (2 Bft) 0,00 %
16.09.2015 13:03 21,8 C 59 % 1002,5 hPa 0,0 l/m 6,5 km/h (2 Bft) O 93 5 min 0,000 mm 3,0 UV-I 659 W/m 13,4 C 21,8 C 7,9 km/h (2 Bft) 0,00 %
16.09.2015 13:08 22,1 C 59 % 1002,5 hPa 0,0 l/m 5,8 km/h (2 Bft) O 99 5 min 0,000 mm 3,0 UV-I 726 W/m 13,7 C 22,1 C 7,9 km/h (2 Bft) 0,00 %
16.09.2015 13:13 22,3 C 58 % 1002,4 hPa 0,0 l/m 0,4 km/h (0 Bft) O-NO 68 5 min 0,000 mm 3,0 UV-I 710 W/m 13,6 C 22,3 C 4,0 km/h (1 Bft) 0,00 %
16.09.2015 13:18 22,5 C 58 % 1002,4 hPa 0,0 l/m 4,0 km/h (1 Bft) O 81 5 min 0,000 mm 3,0 UV-I 718 W/m 13,8 C 22,5 C 7,9 km/h (2 Bft) 0,00 %
16.09.2015 13:23 22,6 C 58 % 1002,5 hPa 0,0 l/m 8,3 km/h (2 Bft) O-SO 120 5 min 0,000 mm 3,0 UV-I 706 W/m 13,9 C 22,0 C 11,9 km/h (2 Bft) 0,00 %
16.09.2015 13:28 22,7 C 59 % 1002,4 hPa 0,0 l/m 0,0 km/h (0 Bft) O 86 5 min 0,000 mm 2,0 UV-I 650 W/m 14,3 C 22,7 C 0,0 km/h (0 Bft) 0,00 %
16.09.2015 13:33 22,8 C 58 % 1002,5 hPa 0,0 l/m 0,4 km/h (0 Bft) O-NO 77 5 min 0,000 mm 3,0 UV-I 695 W/m 14,1 C 22,8 C 4,0 km/h (1 Bft) 0,00 %
16.09.2015 13:38 22,9 C 57 % 1002,4 hPa 0,0 l/m 3,2 km/h (1 Bft) O-NO 75 5 min 0,000 mm 2,0 UV-I 710 W/m 13,9 C 22,9 C 7,9 km/h (2 Bft) 0,00 %
16.09.2015 13:43 23,2 C 55 % 1002,3 hPa 0,0 l/m 9,0 km/h (2 Bft) O-SO 123 5 min 0,000 mm 2,0 UV-I 715 W/m 13,6 C 22,4 C 11,9 km/h (2 Bft) 0,00 %
16.09.2015 13:48 23,5 C 55 % 1002,1 hPa 0,0 l/m 3,2 km/h (1 Bft) O 83 5 min 0,000 mm 2,0 UV-I 647 W/m 13,9 C 23,5 C 7,9 km/h (2 Bft) 0,00 %
16.09.2015 13:53 23,5 C 58 % 1002,0 hPa 0,0 l/m 3,2 km/h (1 Bft) O 80 5 min 0,000 mm 2,0 UV-I 638 W/m 14,7 C 23,5 C 7,9 km/h (2 Bft) 0,00 %
16.09.2015 13:58 23,4 C 56 % 1002,0 hPa 0,0 l/m 1,4 km/h (1 Bft) S 183 5 min 0,000 mm 2,0 UV-I 624 W/m 14,1 C 23,4 C 4,0 km/h (1 Bft) 0,00 %
16.09.2015 14:03 23,4 C 56 % 1001,9 hPa 0,0 l/m 0,7 km/h (0 Bft) O-SO 120 5 min 0,000 mm 2,0 UV-I 697 W/m 14,1 C 23,4 C 4,0 km/h (1 Bft) 0,00 %
16.09.2015 14:08 23,5 C 57 % 1002,0 hPa 0,0 l/m 1,4 km/h (1 Bft) S-SO 148 5 min 0,000 mm 2,0 UV-I 578 W/m 14,5 C 23,5 C 4,0 km/h (1 Bft) 0,00 %
16.09.2015 14:13 23,6 C 57 % 1001,9 hPa 0,0 l/m 3,2 km/h (1 Bft) N-NO 18 5 min 0,000 mm 2,0 UV-I 589 W/m 14,6 C 23,6 C 7,9 km/h (2 Bft) 0,00 %
16.09.2015 14:18 23,6 C 57 % 1001,9 hPa 0,0 l/m 6,5 km/h (2 Bft) S 177 5 min 0,000 mm 1,0 UV-I 592 W/m 14,6 C 23,6 C 11,9 km/h (2 Bft) 0,00 %
16.09.2015 14:23 23,6 C 56 % 1001,8 hPa 0,0 l/m 1,4 km/h (1 Bft) S 191 5 min 0,000 mm 1,0 UV-I 633 W/m 14,3 C 23,6 C 4,0 km/h (1 Bft) 0,00 %
16.09.2015 14:28 23,7 C 56 % 1002,0 hPa 0,0 l/m 0,0 km/h (0 Bft) N-NO 29 5 min 0,000 mm 1,0 UV-I 630 W/m 14,4 C 23,7 C 0,0 km/h (0 Bft) 0,00 %
16.09.2015 14:33 23,9 C 53 % 1001,9 hPa 0,0 l/m 1,4 km/h (1 Bft) N 1 5 min 0,000 mm 1,0 UV-I 625 W/m 13,7 C 23,9 C 4,0 km/h (1 Bft) 0,00 %
16.09.2015 14:38 24,0 C 53 % 1001,9 hPa 0,0 l/m 4,3 km/h (1 Bft) N-NO 27 5 min 0,000 mm 1,0 UV-I 620 W/m 13,8 C 24,0 C 7,9 km/h (2 Bft) 0,00 %
16.09.2015 14:43 24,1 C 52 % 1001,8 hPa 0,0 l/m 1,4 km/h (1 Bft) N-NO 30 5 min 0,000 mm 1,0 UV-I 630 W/m 13,6 C 24,1 C 4,0 km/h (1 Bft) 0,00 %
16.09.2015 14:48 24,2 C 51 % 1001,7 hPa 0,0 l/m 5,8 km/h (2 Bft) O-NO 66 5 min 0,000 mm 1,0 UV-I 620 W/m 13,4 C 24,2 C 7,9 km/h (2 Bft) 0,00 %
16.09.2015 14:53 24,5 C 52 % 1001,7 hPa 0,0 l/m 0,7 km/h (0 Bft) N 356 5 min 0,000 mm 1,0 UV-I 610 W/m 14,0 C 24,5 C 4,0 km/h (1 Bft) 0,00 %
16.09.2015 14:58 24,6 C 50 % 1001,9 hPa 0,0 l/m 2,9 km/h (1 Bft) NW 310 5 min 0,000 mm 1,0 UV-I 615 W/m 13,5 C 24,6 C 4,0 km/h (1 Bft) 0,00 %
16.09.2015 15:03 24,7 C 49 % 1001,8 hPa 0,0 l/m 1,8 km/h (1 Bft) O-NO 64 5 min 0,000 mm 1,0 UV-I 623 W/m 13,3 C 24,7 C 4,0 km/h (1 Bft) 0,00 %
16.09.2015 15:08 24,8 C 47 % 1001,6 hPa 0,0 l/m 0,7 km/h (0 Bft) W-SW 256 5 min 0,000 mm 1,0 UV-I 613 W/m 12,7 C 24,8 C 4,0 km/h (1 Bft) 0,00 %
16.09.2015 15:13 25,0 C 46 % 1001,9 hPa 0,0 l/m 1,8 km/h (1 Bft) NO 43 5 min 0,000 mm 1,0 UV-I 589 W/m 12,6 C 25,0 C 4,0 km/h (1 Bft) 0,00 %
16.09.2015 15:18 25,1 C 48 % 1001,7 hPa 0,0 l/m 0,7 km/h (0 Bft) N-NO 31 5 min 0,000 mm 1,0 UV-I 656 W/m 13,3 C 25,1 C 4,0 km/h (1 Bft) 0,00 %
16.09.2015 15:23 25,1 C 47 % 1001,5 hPa 0,0 l/m 2,2 km/h (1 Bft) O-NO 65 5 min 0,000 mm 1,0 UV-I 670 W/m 13,0 C 25,1 C 4,0 km/h (1 Bft) 0,00 %
16.09.2015 15:28 25,0 C 47 % 1001,5 hPa 0,0 l/m 6,5 km/h (2 Bft) O 94 5 min 0,000 mm 1,0 UV-I 656 W/m 12,9 C 25,0 C 11,9 km/h (2 Bft) 0,00 %
16.09.2015 15:33 25,0 C 48 % 1001,4 hPa 0,0 l/m 4,0 km/h (1 Bft) O-NO 65 5 min 0,000 mm 1,0 UV-I 711 W/m 13,2 C 25,0 C 7,9 km/h (2 Bft) 0,00 %
16.09.2015 15:38 25,0 C 48 % 1001,5 hPa 0,0 l/m 7,9 km/h (2 Bft) O-SO 109 5 min 0,000 mm 1,0 UV-I 689 W/m 13,2 C 24,6 C 11,9 km/h (2 Bft) 0,00 %
16.09.2015 15:43 25,1 C 47 % 1001,6 hPa 0,0 l/m 2,2 km/h (1 Bft) NO 53 5 min 0,000 mm 1,0 UV-I 699 W/m 13,0 C 25,1 C 4,0 km/h (1 Bft) 0,00 %
16.09.2015 15:48 25,1 C 47 % 1001,5 hPa 0,0 l/m 4,7 km/h (1 Bft) O-NO 68 5 min 0,000 mm 1,0 UV-I 650 W/m 13,0 C 25,1 C 7,9 km/h (2 Bft) 0,00 %
16.09.2015 15:53 25,1 C 48 % 1001,6 hPa 0,0 l/m 0,4 km/h (0 Bft) N 2 5 min 0,000 mm 1,0 UV-I 660 W/m 13,3 C 25,1 C 4,0 km/h (1 Bft) 0,00 %
16.09.2015 15:58 25,1 C 46 % 1001,7 hPa 0,0 l/m 0,4 km/h (0 Bft) O 90 5 min 0,000 mm 1,0 UV-I 650 W/m 12,7 C 25,1 C 4,0 km/h (1 Bft) 0,00 %
16.09.2015 16:03 25,3 C 46 % 1001,5 hPa 0,0 l/m 1,8 km/h (1 Bft) SO 144 5 min 0,000 mm 1,0 UV-I 645 W/m 12,8 C 25,3 C 4,0 km/h (1 Bft) 0,00 %
16.09.2015 16:08 25,4 C 46 % 1001,8 hPa 0,0 l/m 0,4 km/h (0 Bft) N-NO 25 5 min 0,000 mm 1,0 UV-I 640 W/m 12,9 C 25,4 C 4,0 km/h (1 Bft) 0,00 %
16.09.2015 16:13 25,4 C 48 % 1001,6 hPa 0,0 l/m 1,8 km/h (1 Bft) S 187 5 min 0,000 mm 1,0 UV-I 500 W/m 13,6 C 25,4 C 4,0 km/h (1 Bft) 0,00 %
16.09.2015 16:18 25,7 C 44 % 1001,6 hPa 0,0 l/m 0,0 km/h (0 Bft) O 84 5 min 0,000 mm 1,0 UV-I 779 W/m 12,5 C 25,7 C 0,0 km/h (0 Bft) 0,00 %
16.09.2015 16:23 26,2 C 43 % 1001,8 hPa 0,0 l/m 0,0 km/h (0 Bft) NO 51 5 min 0,000 mm 1,0 UV-I 681 W/m 12,6 C 26,2 C 0,0 km/h (0 Bft) 0,00 %
16.09.2015 16:28 26,4 C 43 % 1001,6 hPa 0,0 l/m 2,9 km/h (1 Bft) O 90 5 min 0,000 mm 1,0 UV-I 638 W/m 12,8 C 26,4 C 7,9 km/h (2 Bft) 0,00 %
16.09.2015 16:33 26,4 C 43 % 1001,6 hPa 0,0 l/m 3,2 km/h (1 Bft) O 92 5 min 0,000 mm 1,0 UV-I 772 W/m 12,8 C 26,4 C 7,9 km/h (2 Bft) 0,00 %
16.09.2015 16:38 26,4 C 43 % 1001,5 hPa 0,0 l/m 5,8 km/h (2 Bft) O 90 5 min 0,000 mm 1,0 UV-I 758 W/m 12,8 C 26,4 C 7,9 km/h (2 Bft) 0,00 %
16.09.2015 16:43 26,4 C 43 % 1001,4 hPa 0,0 l/m 5,4 km/h (1 Bft) O-NO 78 5 min 0,000 mm 1,0 UV-I 818 W/m 12,8 C 26,4 C 11,9 km/h (2 Bft) 0,00 %
16.09.2015 16:48 26,6 C 43 % 1001,4 hPa 0,0 l/m 5,4 km/h (1 Bft) O-SO 115 5 min 0,000 mm 1,0 UV-I 769 W/m 13,0 C 26,6 C 7,9 km/h (2 Bft) 0,00 %
16.09.2015 16:53 26,7 C 43 % 1001,5 hPa 0,0 l/m 2,9 km/h (1 Bft) O-NO 74 5 min 0,000 mm 1,0 UV-I 780 W/m 13,1 C 26,7 C 4,0 km/h (1 Bft) 0,00 %
16.09.2015 16:58 26,8 C 43 % 1001,4 hPa 0,0 l/m 0,7 km/h (0 Bft) O-SO 115 5 min 0,000 mm 1,0 UV-I 742 W/m 13,2 C 26,8 C 4,0 km/h (1 Bft) 0,00 %
16.09.2015 17:03 26,8 C 43 % 1001,4 hPa 0,0 l/m 5,4 km/h (1 Bft) NO 38 5 min 0,000 mm 1,0 UV-I 721 W/m 13,2 C 26,8 C 11,9 km/h (2 Bft) 0,00 %
16.09.2015 17:08 26,6 C 44 % 1001,4 hPa 0,0 l/m 3,2 km/h (1 Bft) NO 48 5 min 0,000 mm 1,0 UV-I 692 W/m 13,3 C 26,6 C 7,9 km/h (2 Bft) 0,00 %
16.09.2015 17:13 26,5 C 45 % 1001,3 hPa 0,0 l/m 0,7 km/h (0 Bft) S 171 5 min 0,000 mm 1,0 UV-I 715 W/m 13,6 C 26,5 C 4,0 km/h (1 Bft) 0,00 %
16.09.2015 17:18 26,4 C 45 % 1001,3 hPa 0,0 l/m 8,3 km/h (2 Bft) O-SO 108 5 min 0,000 mm 1,0 UV-I 693 W/m 13,5 C 26,0 C 11,9 km/h (2 Bft) 0,00 %
16.09.2015 17:23 26,3 C 46 % 1001,4 hPa 0,0 l/m 4,0 km/h (1 Bft) O 89 5 min 0,000 mm 1,0 UV-I 656 W/m 13,7 C 26,3 C 7,9 km/h (2 Bft) 0,00 %
16.09.2015 17:28 26,2 C 46 % 1001,2 hPa 0,0 l/m 5,4 km/h (1 Bft) O-SO 116 5 min 0,000 mm 1,0 UV-I 640 W/m 13,6 C 26,2 C 7,9 km/h (2 Bft) 0,00 %
16.09.2015 17:33 26,1 C 48 % 1001,1 hPa 0,0 l/m 1,4 km/h (1 Bft) NO 50 5 min 0,000 mm 1,0 UV-I 623 W/m 14,2 C 26,1 C 4,0 km/h (1 Bft) 0,00 %
16.09.2015 17:38 26,1 C 48 % 1001,2 hPa 0,0 l/m 0,0 km/h (0 Bft) O-NO 66 5 min 0,000 mm 1,0 UV-I 621 W/m 14,2 C 26,1 C 0,0 km/h (0 Bft) 0,00 %
16.09.2015 17:43 26,0 C 48 % 1001,0 hPa 0,0 l/m 0,7 km/h (0 Bft) NO 46 5 min 0,000 mm 1,0 UV-I 600 W/m 14,1 C 26,0 C 4,0 km/h (1 Bft) 0,00 %
16.09.2015 17:48 25,9 C 49 % 1001,1 hPa 0,0 l/m 0,7 km/h (0 Bft) O-SO 107 5 min 0,000 mm 1,0 UV-I 577 W/m 14,4 C 25,9 C 4,0 km/h (1 Bft) 0,00 %
16.09.2015 17:54 25,7 C 50 % 1001,0 hPa 0,0 l/m 1,8 km/h (1 Bft) O 87 6 min 0,000 mm 1,0 UV-I 573 W/m 14,5 C 25,7 C 4,0 km/h (1 Bft) 0,00 %
16.09.2015 17:59 25,6 C 51 % 1001,1 hPa 0,0 l/m 2,2 km/h (1 Bft) O 85 5 min 0,000 mm 1,0 UV-I 442 W/m 14,7 C 25,6 C 4,0 km/h (1 Bft) 0,00 %
16.09.2015 18:04 25,5 C 51 % 1000,8 hPa 0,0 l/m 0,4 km/h (0 Bft) O-SO 107 5 min 0,000 mm 0,0 UV-I 512 W/m 14,6 C 25,5 C 4,0 km/h (1 Bft) 0,00 %
16.09.2015 18:09 25,4 C 52 % 1000,9 hPa 0,0 l/m 0,4 km/h (0 Bft) O-NO 57 5 min 0,000 mm 0,0 UV-I 491 W/m 14,8 C 25,4 C 4,0 km/h (1 Bft) 0,00 %
16.09.2015 18:14 25,3 C 52 % 1000,9 hPa 0,0 l/m 4,0 km/h (1 Bft) NO 46 5 min 0,000 mm 0,0 UV-I 357 W/m 14,7 C 25,3 C 7,9 km/h (2 Bft) 0,00 %
16.09.2015 18:19 25,1 C 53 % 1000,8 hPa 0,0 l/m 0,7 km/h (0 Bft) NO 46 5 min 0,000 mm 0,0 UV-I 421 W/m 14,8 C 25,1 C 4,0 km/h (1 Bft) 0,00 %
16.09.2015 18:24 24,8 C 54 % 1000,9 hPa 0,0 l/m 3,2 km/h (1 Bft) O-SO 116 5 min 0,000 mm 0,0 UV-I 304 W/m 14,8 C 24,8 C 4,0 km/h (1 Bft) 0,00 %
16.09.2015 18:29 24,5 C 55 % 1000,9 hPa 0,0 l/m 4,0 km/h (1 Bft) O 83 5 min 0,000 mm 0,0 UV-I 175 W/m 14,9 C 24,5 C 7,9 km/h (2 Bft) 0,00 %
16.09.2015 18:34 24,3 C 56 % 1000,9 hPa 0,0 l/m 1,4 km/h (1 Bft) O 90 5 min 0,000 mm 0,0 UV-I 130 W/m 14,9 C 24,3 C 4,0 km/h (1 Bft) 0,00 %
16.09.2015 18:39 24,1 C 58 % 1001,0 hPa 0,0 l/m 0,7 km/h (0 Bft) O-NO 72 5 min 0,000 mm 0,0 UV-I 57 W/m 15,3 C 24,1 C 4,0 km/h (1 Bft) 0,00 %
16.09.2015 18:44 23,8 C 60 % 1001,1 hPa 0,0 l/m 0,0 km/h (0 Bft) O-NO 68 5 min 0,000 mm 0,0 UV-I 43 W/m 15,6 C 23,8 C 0,0 km/h (0 Bft) 0,00 %
16.09.2015 18:49 23,5 C 61 % 1001,2 hPa 0,0 l/m 0,0 km/h (0 Bft) O 100 5 min 0,000 mm 0,0 UV-I 35 W/m 15,5 C 23,5 C 0,0 km/h (0 Bft) 0,00 %
16.09.2015 18:54 23,1 C 63 % 1001,2 hPa 0,0 l/m 0,0 km/h (0 Bft) O-NO 70 5 min 0,000 mm 0,0 UV-I 29 W/m 15,7 C 23,1 C 0,0 km/h (0 Bft) 0,00 %
16.09.2015 18:59 22,7 C 64 % 1000,9 hPa 0,0 l/m 0,0 km/h (0 Bft) O-SO 109 5 min 0,000 mm 0,0 UV-I 31 W/m 15,5 C 22,7 C 0,0 km/h (0 Bft) 0,00 %
16.09.2015 19:04 22,4 C 64 % 1000,9 hPa 0,0 l/m 1,8 km/h (1 Bft) O 97 5 min 0,000 mm 0,0 UV-I 18 W/m 15,2 C 22,4 C 4,0 km/h (1 Bft) 0,00 %
16.09.2015 19:09 22,3 C 64 % 1001,0 hPa 0,0 l/m 7,2 km/h (2 Bft) O-SO 109 0 min 0,000 mm 0,0 UV-I 5 W/m 15,2 C 22,0 C 7,9 km/h (2 Bft) 0,00 %
16.09.2015 19:14 22,3 C 64 % 1000,8 hPa 0,0 l/m 1,4 km/h (1 Bft) O 91 0 min 0,000 mm 0,0 UV-I 0 W/m 15,2 C 22,3 C 4,0 km/h (1 Bft) 0,00 %
16.09.2015 19:19 22,3 C 65 % 1001,0 hPa 0,0 l/m 2,2 km/h (1 Bft) O-NO 76 0 min 0,000 mm 0,0 UV-I 0 W/m 15,4 C 22,3 C 4,0 km/h (1 Bft) 0,00 %
16.09.2015 19:24 22,3 C 65 % 1000,9 hPa 0,0 l/m 0,0 km/h (0 Bft) O-NO 64 0 min 0,000 mm 0,0 UV-I 0 W/m 15,4 C 22,3 C 0,0 km/h (0 Bft) 0,00 %
16.09.2015 19:29 22,1 C 66 % 1000,9 hPa 0,0 l/m 0,4 km/h (0 Bft) O 101 0 min 0,000 mm 0,0 UV-I 0 W/m 15,4 C 22,1 C 4,0 km/h (1 Bft) 0,00 %
16.09.2015 19:34 21,9 C 67 % 1001,0 hPa 0,0 l/m 0,0 km/h (0 Bft) O-NO 62 0 min 0,000 mm 0,0 UV-I 0 W/m 15,5 C 21,9 C 0,0 km/h (0 Bft) 0,00 %
16.09.2015 19:39 21,6 C 68 % 1000,9 hPa 0,0 l/m 0,0 km/h (0 Bft) O-NO 77 0 min 0,000 mm 0,0 UV-I 0 W/m 15,4 C 21,6 C 0,0 km/h (0 Bft) 0,00 %
16.09.2015 19:44 21,3 C 70 % 1001,0 hPa 0,0 l/m 0,0 km/h (0 Bft) O-NO 70 0 min 0,000 mm 0,0 UV-I 0 W/m 15,6 C 21,3 C 0,0 km/h (0 Bft) 0,00 %
16.09.2015 19:49 20,9 C 71 % 1001,0 hPa 0,0 l/m 0,0 km/h (0 Bft) O-SO 115 0 min 0,000 mm 0,0 UV-I 0 W/m 15,4 C 20,9 C 0,0 km/h (0 Bft) 0,00 %
16.09.2015 19:54 20,6 C 72 % 1001,0 hPa 0,0 l/m 0,0 km/h (0 Bft) O 82 0 min 0,000 mm 0,0 UV-I 0 W/m 15,4 C 20,6 C 0,0 km/h (0 Bft) 0,00 %
16.09.2015 19:59 20,5 C 72 % 1001,0 hPa 0,0 l/m 0,0 km/h (0 Bft) O 85 0 min 0,000 mm 0,0 UV-I 0 W/m 15,3 C 20,5 C 0,0 km/h (0 Bft) 0,00 %
16.09.2015 20:04 20,5 C 72 % 1001,2 hPa 0,0 l/m 0,0 km/h (0 Bft) O-SO 105 0 min 0,000 mm 0,0 UV-I 0 W/m 15,3 C 20,5 C 0,0 km/h (0 Bft) 0,00 %
16.09.2015 20:09 20,6 C 72 % 1001,4 hPa 0,0 l/m 0,0 km/h (0 Bft) O 84 0 min 0,000 mm 0,0 UV-I 0 W/m 15,4 C 20,6 C 0,0 km/h (0 Bft) 0,00 %
16.09.2015 20:14 20,7 C 72 % 1001,3 hPa 0,0 l/m 0,7 km/h (0 Bft) NO 43 0 min 0,000 mm 0,0 UV-I 0 W/m 15,5 C 20,7 C 4,0 km/h (1 Bft) 0,00 %
16.09.2015 20:19 20,7 C 73 % 1001,5 hPa 0,0 l/m 0,4 km/h (0 Bft) NO 56 0 min 0,000 mm 0,0 UV-I 0 W/m 15,7 C 20,7 C 4,0 km/h (1 Bft) 0,00 %
16.09.2015 20:24 20,7 C 73 % 1001,3 hPa 0,0 l/m 0,7 km/h (0 Bft) O-SO 106 0 min 0,000 mm 0,0 UV-I 0 W/m 15,7 C 20,7 C 4,0 km/h (1 Bft) 0,00 %
16.09.2015 20:29 20,7 C 73 % 1001,4 hPa 0,0 l/m 3,2 km/h (1 Bft) O-NO 78 0 min 0,000 mm 0,0 UV-I 0 W/m 15,7 C 20,7 C 7,9 km/h (2 Bft) 0,00 %
16.09.2015 20:34 20,7 C 73 % 1001,4 hPa 0,0 l/m 0,0 km/h (0 Bft) O-SO 116 0 min 0,000 mm 0,0 UV-I 0 W/m 15,7 C 20,7 C 0,0 km/h (0 Bft) 0,00 %
16.09.2015 20:39 20,6 C 73 % 1001,5 hPa 0,0 l/m 0,0 km/h (0 Bft) O-NO 67 0 min 0,000 mm 0,0 UV-I 0 W/m 15,6 C 20,6 C 0,0 km/h (0 Bft) 0,00 %
16.09.2015 20:44 20,5 C 73 % 1001,4 hPa 0,0 l/m 0,4 km/h (0 Bft) O-SO 121 0 min 0,000 mm 0,0 UV-I 0 W/m 15,5 C 20,5 C 4,0 km/h (1 Bft) 0,00 %
16.09.2015 20:49 20,4 C 74 % 1001,4 hPa 0,0 l/m 0,0 km/h (0 Bft) O-NO 65 0 min 0,000 mm 0,0 UV-I 0 W/m 15,6 C 20,4 C 0,0 km/h (0 Bft) 0,00 %
16.09.2015 20:54 20,2 C 75 % 1001,6 hPa 0,0 l/m 0,0 km/h (0 Bft) O-NO 64 0 min 0,000 mm 0,0 UV-I 0 W/m 15,6 C 20,2 C 0,0 km/h (0 Bft) 0,00 %
16.09.2015 20:59 19,9 C 77 % 1001,6 hPa 0,0 l/m 0,0 km/h (0 Bft) O-NO 62 0 min 0,000 mm 0,0 UV-I 0 W/m 15,7 C 19,9 C 0,0 km/h (0 Bft) 0,00 %
16.09.2015 21:04 19,4 C 80 % 1001,7 hPa 0,0 l/m 0,0 km/h (0 Bft) O-NO 66 0 min 0,000 mm 0,0 UV-I 0 W/m 15,9 C 19,4 C 0,0 km/h (0 Bft) 0,00 %
16.09.2015 21:09 19,1 C 80 % 1001,7 hPa 0,0 l/m 0,0 km/h (0 Bft) O-NO 58 0 min 0,000 mm 0,0 UV-I 0 W/m 15,6 C 19,1 C 0,0 km/h (0 Bft) 0,00 %
16.09.2015 21:14 18,9 C 81 % 1001,8 hPa 0,0 l/m 0,0 km/h (0 Bft) O-NO 68 0 min 0,000 mm 0,0 UV-I 0 W/m 15,6 C 18,9 C 0,0 km/h (0 Bft) 0,00 %
16.09.2015 21:19 18,8 C 80 % 1001,7 hPa 0,0 l/m 0,0 km/h (0 Bft) O-NO 61 0 min 0,000 mm 0,0 UV-I 0 W/m 15,3 C 18,8 C 0,0 km/h (0 Bft) 0,00 %
16.09.2015 21:24 18,8 C 78 % 1001,8 hPa 0,0 l/m 0,0 km/h (0 Bft) NO 39 0 min 0,000 mm 0,0 UV-I 0 W/m 14,9 C 18,8 C 0,0 km/h (0 Bft) 0,00 %
16.09.2015 21:29 18,9 C 80 % 1001,8 hPa 0,0 l/m 0,0 km/h (0 Bft) NO 55 0 min 0,000 mm 0,0 UV-I 0 W/m 15,4 C 18,9 C 0,0 km/h (0 Bft) 0,00 %
16.09.2015 21:34 18,8 C 81 % 1001,8 hPa 0,0 l/m 0,0 km/h (0 Bft) O-NO 66 0 min 0,000 mm 0,0 UV-I 0 W/m 15,5 C 18,8 C 0,0 km/h (0 Bft) 0,00 %
16.09.2015 21:39 18,5 C 82 % 1001,5 hPa 0,0 l/m 0,0 km/h (0 Bft) O-NO 72 0 min 0,000 mm 0,0 UV-I 0 W/m 15,4 C 18,5 C 0,0 km/h (0 Bft) 0,00 %
16.09.2015 21:44 18,2 C 83 % 1001,8 hPa 0,0 l/m 0,0 km/h (0 Bft) O-NO 63 0 min 0,000 mm 0,0 UV-I 0 W/m 15,3 C 18,2 C 0,0 km/h (0 Bft) 0,00 %
16.09.2015 21:49 18,0 C 83 % 1001,7 hPa 0,0 l/m 0,0 km/h (0 Bft) O-NO 70 0 min 0,000 mm 0,0 UV-I 0 W/m 15,1 C 18,0 C 0,0 km/h (0 Bft) 0,00 %
16.09.2015 21:54 18,0 C 85 % 1001,8 hPa 0,0 l/m 0,0 km/h (0 Bft) O-NO 68 0 min 0,000 mm 0,0 UV-I 0 W/m 15,4 C 18,0 C 0,0 km/h (0 Bft) 0,00 %
16.09.2015 21:59 17,9 C 85 % 1001,9 hPa 0,0 l/m 0,0 km/h (0 Bft) NO 49 0 min 0,000 mm 0,0 UV-I 0 W/m 15,3 C 17,9 C 0,0 km/h (0 Bft) 0,00 %
16.09.2015 22:04 17,7 C 85 % 1001,8 hPa 0,0 l/m 0,0 km/h (0 Bft) O-NO 62 0 min 0,000 mm 0,0 UV-I 0 W/m 15,1 C 17,7 C 0,0 km/h (0 Bft) 0,00 %
16.09.2015 22:09 17,6 C 84 % 1001,9 hPa 0,0 l/m 0,0 km/h (0 Bft) NO 46 0 min 0,000 mm 0,0 UV-I 0 W/m 14,9 C 17,6 C 0,0 km/h (0 Bft) 0,00 %
16.09.2015 22:14 17,5 C 84 % 1001,9 hPa 0,0 l/m 0,0 km/h (0 Bft) N-NO 32 0 min 0,000 mm 0,0 UV-I 0 W/m 14,8 C 17,5 C 0,0 km/h (0 Bft) 0,00 %
16.09.2015 22:19 17,3 C 86 % 1001,9 hPa 0,0 l/m 0,0 km/h (0 Bft) O-NO 58 0 min 0,000 mm 0,0 UV-I 0 W/m 14,9 C 17,3 C 0,0 km/h (0 Bft) 0,00 %
16.09.2015 22:24 16,9 C 88 % 1001,9 hPa 0,0 l/m 0,4 km/h (0 Bft) NO 54 0 min 0,000 mm 0,0 UV-I 0 W/m 14,9 C 16,9 C 4,0 km/h (1 Bft) 0,00 %
16.09.2015 22:29 16,6 C 88 % 1001,9 hPa 0,0 l/m 0,0 km/h (0 Bft) O-NO 61 0 min 0,000 mm 0,0 UV-I 0 W/m 14,6 C 16,6 C 0,0 km/h (0 Bft) 0,00 %
16.09.2015 22:34 16,7 C 88 % 1001,8 hPa 0,0 l/m 0,0 km/h (0 Bft) NO 48 0 min 0,000 mm 0,0 UV-I 0 W/m 14,7 C 16,7 C 0,0 km/h (0 Bft) 0,00 %
16.09.2015 22:39 16,7 C 88 % 1002,2 hPa 0,0 l/m 0,0 km/h (0 Bft) O-NO 60 0 min 0,000 mm 0,0 UV-I 0 W/m 14,7 C 16,7 C 0,0 km/h (0 Bft) 0,00 %
16.09.2015 22:44 16,6 C 89 % 1002,2 hPa 0,0 l/m 0,0 km/h (0 Bft) O-NO 72 0 min 0,000 mm 0,0 UV-I 0 W/m 14,8 C 16,6 C 0,0 km/h (0 Bft) 0,00 %
16.09.2015 22:49 16,7 C 89 % 1002,2 hPa 0,0 l/m 0,0 km/h (0 Bft) O 80 0 min 0,000 mm 0,0 UV-I 0 W/m 14,9 C 16,7 C 0,0 km/h (0 Bft) 0,00 %
16.09.2015 22:54 16,7 C 89 % 1002,2 hPa 0,0 l/m 0,7 km/h (0 Bft) O-NO 62 0 min 0,000 mm 0,0 UV-I 0 W/m 14,9 C 16,7 C 4,0 km/h (1 Bft) 0,00 %
16.09.2015 22:59 16,6 C 89 % 1002,3 hPa 0,0 l/m 0,0 km/h (0 Bft) O 84 0 min 0,000 mm 0,0 UV-I 0 W/m 14,8 C 16,6 C 0,0 km/h (0 Bft) 0,00 %
16.09.2015 23:04 16,6 C 89 % 1002,3 hPa 0,0 l/m 1,8 km/h (1 Bft) O-SO 109 0 min 0,000 mm 0,0 UV-I 0 W/m 14,8 C 16,6 C 4,0 km/h (1 Bft) 0,00 %
16.09.2015 23:09 16,6 C 89 % 1002,2 hPa 0,0 l/m 0,0 km/h (0 Bft) O-NO 59 0 min 0,000 mm 0,0 UV-I 0 W/m 14,8 C 16,6 C 0,0 km/h (0 Bft) 0,00 %
16.09.2015 23:14 16,6 C 88 % 1002,3 hPa 0,0 l/m 0,0 km/h (0 Bft) O-NO 64 0 min 0,000 mm 0,0 UV-I 0 W/m 14,6 C 16,6 C 0,0 km/h (0 Bft) 0,00 %
16.09.2015 23:19 16,6 C 87 % 1002,3 hPa 0,0 l/m 0,0 km/h (0 Bft) NO 38 0 min 0,000 mm 0,0 UV-I 0 W/m 14,4 C 16,6 C 0,0 km/h (0 Bft) 0,00 %
16.09.2015 23:24 16,6 C 86 % 1002,3 hPa 0,0 l/m 0,0 km/h (0 Bft) NO 40 0 min 0,000 mm 0,0 UV-I 0 W/m 14,2 C 16,6 C 0,0 km/h (0 Bft) 0,00 %
16.09.2015 23:29 16,5 C 87 % 1002,3 hPa 0,0 l/m 0,4 km/h (0 Bft) NO 44 0 min 0,000 mm 0,0 UV-I 0 W/m 14,3 C 16,5 C 4,0 km/h (1 Bft) 0,00 %
16.09.2015 23:34 16,2 C 89 % 1002,4 hPa 0,0 l/m 0,0 km/h (0 Bft) O-NO 71 0 min 0,000 mm 0,0 UV-I 0 W/m 14,4 C 16,2 C 0,0 km/h (0 Bft) 0,00 %
16.09.2015 23:39 15,9 C 90 % 1002,3 hPa 0,0 l/m 0,0 km/h (0 Bft) O-NO 61 0 min 0,000 mm 0,0 UV-I 0 W/m 14,3 C 15,9 C 0,0 km/h (0 Bft) 0,00 %
16.09.2015 23:44 15,9 C 90 % 1002,4 hPa 0,0 l/m 0,0 km/h (0 Bft) NO 49 0 min 0,000 mm 0,0 UV-I 0 W/m 14,3 C 15,9 C 0,0 km/h (0 Bft) 0,00 %
16.09.2015 23:49 15,8 C 90 % 1002,3 hPa 0,0 l/m 0,0 km/h (0 Bft) O 80 0 min 0,000 mm 0,0 UV-I 0 W/m 14,2 C 15,8 C 0,0 km/h (0 Bft) 0,00 %
16.09.2015 23:54 15,8 C 91 % 1002,2 hPa 0,0 l/m 0,0 km/h (0 Bft) O-NO 76 0 min 0,000 mm 0,0 UV-I 0 W/m 14,3 C 15,8 C 0,0 km/h (0 Bft) 0,00 %
16.09.2015 23:59 15,8 C 91 % 1002,2 hPa 0,0 l/m 0,0 km/h (0 Bft) O 97 0 min 0,000 mm 0,0 UV-I 0 W/m 14,3 C 15,8 C 0,0 km/h (0 Bft) 0,00 %
_ Min-Zeit 04:53 16:23 18:04 - 00:02 - - - - - - 04:33 04:53 00:02 00:02
Minimum _ 9,6 C 43 % 1000,8 hPa - 0,0 km/h (0 Bft) - - - - - - 9,2 C 9,6 C 0,0 km/h (0 Bft) 0,00 %
_ Max-Zeit 16:58 04:53 00:02 00:02 13:43 - - 17:54 00:02 12:03 16:43 21:04 16:58 10:28 00:02
Maximum _ 26,8 C 98 % 1010,0 hPa 0,0 l/m 9,0 km/h
O-SO (2 Bft)
- - 6 min 0,000 mm 3,0 UV-I 818 W/m 15,9 C 26,8 C 11,9 km/h
O (2 Bft)
0,00 %
Durchschnitt _ 17,4 C 76 % 1003,9 hPa #0,0 l/m 1,2 km/h (1 Bft) O - #9:16 h #0,000 mm 1,4 UV-I 432 W/m 12,5 C 17,4 C 2,7 km/h (1 Bft) 0,00 %